Weather History for Montreal, QC

Change the Weather History Date:

Friday, April 26, 2013

  Actual Average Record
Temperature  
Mean Temperature 44 °F -  
Max Temperature 52 °F 56 °F 69 °F (2008)
Min Temperature 36 °F 37 °F 30 °F (1998)
Degree Days  
Heating Degree Days 21    
Moisture  
Dew Point 32 °F    
Average Humidity 61    
Maximum Humidity 71    
Minimum Humidity 41    
Precipitation  
Precipitation 0.02 in - - ()
Sea Level Pressure  
Sea Level Pressure 30.41 in    
Wind  
Wind Speed 5 mph ()    
Max Wind Speed 9 mph    
Max Gust Speed -    
Visibility 14.8 miles    
Events Rain    
Averages and records for this station are not official NWS values.
T = Trace of Precipitation, MM = Missing Value Source: Averaged Metar Reports

Daily Weather History Graph

Daily Weather History Graph

Search for Another Location

Airport:

Trip Planner

Search our weather history database for the weather conditions in past years. The results will help you decide how hot, cold, wet, or windy it might be!

Date:

Astronomy

Apr. 26, 2013 Rise Set
Actual Time 5:50 AM EDT 7:55 PM EDT
Civil Twilight 5:18 AM EDT 8:27 PM EDT
Nautical Twilight 4:38 AM EDT 9:07 PM EDT
Astronomical Twilight 3:55 AM EDT 9:51 PM EDT
Moon 9:19 PM EDT (4/26) 6:13 AM EDT (4/26)
Length of Visible Light 15h 09m
Length of Day
14h 05m
Full, 99% of the Moon is Illuminated
Apr 26
Full
May 2
Last Quarter
May 9
New
May 18
First Quarter
May 25
Full

Hourly Weather History & Observations

Time (EDT) Temp. Windchill Dew Point Humidity Pressure Visibility Wind Dir Wind Speed Gust Speed Precip Events Conditions
12:00 AM 44.6 °F 40.7 °F 30.2 °F 57% 30.29 in 15.0 mi ESE 6.9 mph - N/A   Mostly Cloudy
1:00 AM 42.8 °F 39.3 °F 28.4 °F 57% 30.30 in 15.0 mi ESE 5.8 mph - N/A   Mostly Cloudy
2:00 AM 41 °F - 27 °F 46% 30.30 in 15 mi SE 1.2 mph - -   Clear
2:00 AM 41.0 °F - 26.6 °F 57% 30.30 in 15.0 mi Calm Calm - N/A   Scattered Clouds
3:00 AM 39.2 °F 35.9 °F 28.4 °F 65% 30.31 in 15.0 mi North 4.6 mph - N/A   Mostly Cloudy
4:00 AM 39.2 °F 37.0 °F 30.2 °F 70% 30.32 in 15.0 mi North 3.5 mph - N/A   Mostly Cloudy
5:00 AM 39.2 °F 35.9 °F 30.2 °F 70% 30.34 in 15.0 mi NW 4.6 mph - N/A   Mostly Cloudy
6:00 AM 37.4 °F 32.8 °F 28.4 °F 70% 30.35 in 15.0 mi North 5.8 mph - N/A   Mostly Cloudy
7:00 AM 39.2 °F 35.0 °F 28.4 °F 65% 30.39 in 15.0 mi NNW 5.8 mph - N/A   Overcast
8:00 AM 41 °F - 28 °F 47% 30.41 in 15 mi NNW 3.5 mph - -   Overcast
8:00 AM 41.0 °F 37.1 °F 28.4 °F 61% 30.41 in 15.0 mi West 5.8 mph - N/A   Overcast
9:00 AM 41.0 °F 36.4 °F 28.4 °F 61% 30.45 in 15.0 mi WNW 6.9 mph - N/A   Overcast
9:23 AM 41.0 °F 36.4 °F 28.4 °F 61% 30.45 in 12.0 mi NW 6.9 mph - N/A Rain Light Rain Showers
10:00 AM 41.0 °F 35.8 °F 32.0 °F 70% 30.45 in 15.0 mi North 8.1 mph - N/A   Overcast
10:15 AM 41.0 °F 35.2 °F 32.0 °F 70% 30.45 in 12.0 mi North 9.2 mph - N/A Rain Light Rain Showers
11:00 AM 42.8 °F 38.6 °F 33.8 °F 70% 30.47 in 15.0 mi NNE 6.9 mph - N/A Rain Light Rain Showers
11:38 AM 44.6 °F - 33.8 °F 66% 30.47 in 15.0 mi WNW 2.3 mph - N/A   Overcast
12:00 PM 44.6 °F 42.2 °F 35.6 °F 71% 30.47 in 15.0 mi WSW 4.6 mph - N/A   Overcast
1:00 PM 46.4 °F 42.9 °F 35.6 °F 66% 30.46 in 15.0 mi SW 6.9 mph - N/A   Mostly Cloudy
2:00 PM 49 °F - 36 °F 51% 30.46 in 15 mi South 9.2 mph - -   Partly Cloudy
2:00 PM 50.0 °F - 35.6 °F 58% 30.45 in 15.0 mi South 9.2 mph - N/A   Mostly Cloudy
3:00 PM 50.0 °F - 37.4 °F 62% 30.45 in 15.0 mi SSW 9.2 mph - N/A   Mostly Cloudy
4:00 PM 48.2 °F - 35.6 °F 62% 30.45 in 15.0 mi WSW 4.6 mph - N/A   Scattered Clouds
5:00 PM 51.8 °F - 35.6 °F 54% 30.43 in 15.0 mi SW 4.6 mph - N/A   Scattered Clouds
6:00 PM 51.8 °F - 35.6 °F 54% 30.43 in 15.0 mi SSW 6.9 mph - N/A   Scattered Clouds
7:00 PM 50.0 °F - 33.8 °F 54% 30.43 in 15.0 mi SSW 6.9 mph - N/A   Clear
8:00 PM 49 °F - 33 °F 41% 30.44 in 28 mi SW 3.5 mph - -   Clear
8:00 PM 48.2 °F - 32.0 °F 54% 30.43 in 30.0 mi WSW 2.3 mph - N/A   Partly Cloudy
9:00 PM 46.4 °F - 32.0 °F 57% 30.45 in 15.0 mi WSW 2.3 mph - N/A   Clear
10:00 PM 44.6 °F - 33.8 °F 66% 30.45 in 15.0 mi Calm Calm - N/A   Clear
11:00 PM 46.4 °F 44.3 °F 35.6 °F 66% 30.45 in 15.0 mi SE 4.6 mph - N/A   Clear